Wind_Speed
14 13 12 12 12 13 14 16 18 19 21 23 26 27 28 30 31 32 33 35 37 39 41 43 45 47 48 49 50 51 52 53 54 55 57 58 59 60 61 62 64 64 65 65
10 11 11 12 13 15 16 18 20 22 24 26 29 30 31 33 34 36 38 41 44 46 47 48 49 50 51 52 54 55 57 59 61 62 63 64 65 66 66 67 68 69 70 70
10 11 12 14 16 18 19 21 22 24 26 29 32 33 35 37 39 42 45 49 52 54 56 56 57 58 59 59 60 61 62 64 65 66 67 69 70 71 72 72 72 73 74 74
10 11 13 15 17 19 22 24 26 28 30 33 36 39 40 43 46 49 52 55 58 60 62 65 67 68 68 68 67 66 66 67 69 71 72 74 74 75 75 75 75 75 76 77
11 13 15 17 19 21 24 26 29 31 34 37 40 44 46 48 52 55 58 60 62 65 68 71 73 74 74 74 73 72 72 74 75 77 77 77 77 76 76 76 76 76 77 78
14 15 17 20 22 24 27 30 33 36 39 42 45 49 53 55 58 60 63 65 67 70 73 74 75 76 77 78 78 78 78 79 79 79 78 76 73 71 69 69 70 71 72 73
13 16 18 21 24 27 29 33 36 41 44 46 50 53 57 61 64 66 68 70 71 73 74 74 75 77 78 80 80 81 81 80 78 74 68 62 58 56 56 57 59 61 64 67
17 19 21 24 27 30 34 37 41 44 47 50 53 58 63 66 68 69 71 72 72 73 73 75 77 78 80 81 81 80 77 73 67 58 51 46 45 46 48 50 53 56 59 62
20 23 25 27 30 34 38 42 45 48 53 56 58 62 67 69 71 71 70 70 70 72 73 75 77 79 80 79 76 71 64 55 47 41 38 38 39 40 43 45 47 48 49 50
21 25 29 32 35 38 42 46 49 53 56 59 62 66 69 71 70 68 67 67 68 70 72 74 74 74 71 66 59 52 44 38 35 33 34 34 36 37 40 40 40 40 39 39
23 27 31 35 39 42 45 48 53 56 58 61 65 68 71 69 65 63 63 64 66 68 67 66 63 59 54 49 44 39 35 32 31 31 31 32 34 36 37 37 36 35 35 34
27 30 34 38 42 45 48 52 55 58 61 64 67 70 70 65 62 62 62 63 62 61 58 55 51 48 45 41 37 33 31 29 29 29 30 31 33 34 35 35 34 33 32 31
30 33 37 41 45 48 50 54 57 60 64 66 68 66 68 62 60 61 60 58 56 54 51 48 46 43 40 36 33 30 29 28 29 30 31 33 34 34 34 34 33 32 31 29
31 34 38 42 46 49 52 55 59 63 67 70 69 69 67 64 62 59 54 52 52 50 47 46 43 40 37 34 31 30 30 30 31 32 34 34 35 35 34 33 32 31 30 28
33 36 39 43 48 52 55 57 62 66 70 71 71 70 67 63 59 55 52 51 49 47 45 43 41 39 36 33 32 31 31 32 33 34 36 36 36 36 35 34 32 31 29 27
34 38 42 45 50 54 56 61 65 68 71 71 71 67 64 58 53 51 50 49 47 45 43 41 40 39 37 35 33 33 33 34 35 37 38 38 38 37 36 34 32 31 30 28
36 41 45 48 52 57 59 63 66 70 71 72 70 68 62 54 50 49 48 46 44 42 41 40 40 39 38 37 37 36 37 38 39 40 40 40 39 39 37 35 33 31 30 29
38 43 47 50 54 58 61 64 67 70 71 70 67 62 55 51 48 48 46 44 41 41 40 40 40 40 40 40 40 41 41 42 43 44 43 43 42 40 38 36 34 32 31 30
40 45 49 52 55 59 62 65 68 71 70 69 64 56 49 46 45 45 44 42 41 41 41 42 42 43 43 44 44 45 46 46 47 47 46 45 43 42 40 38 35 33 32 31
42 46 50 53 57 60 63 66 69 71 68 66 59 52 48 45 43 42 42 42 42 43 44 45 46 46 47 48 48 49 49 50 50 50 49 48 46 44 42 39 36 34 33 32
44 48 51 55 58 60 64 67 69 68 68 64 55 49 45 44 43 44 44 45 45 46 47 48 50 51 51 52 52 53 53 53 53 53 52 50 48 46 44 42 39 36 35 34
46 49 52 56 59 61 65 66 67 67 65 57 50 45 43 43 44 45 46 47 48 49 50 52 53 54 55 55 55 55 54 54 53 52 51 50 48 47 45 44 42 40 38 37
47 50 53 56 59 62 64 66 67 66 59 51 45 43 43 43 45 46 48 50 51 53 54 55 56 56 56 56 55 53 52 51 50 49 48 47 46 45 44 43 42 42 42 41
48 50 53 57 60 63 65 66 65 61 54 47 43 42 43 45 47 49 51 53 54 55 56 57 57 56 54 52 50 49 48 48 48 47 46 46 45 44 43 42 41 41 42 43
48 52 54 57 60 62 64 65 63 57 50 44 42 42 44 47 49 52 54 55 56 57 58 57 54 51 48 46 46 47 47 47 47 47 46 45 44 43 41 40 39 38 39 40
49 52 55 57 60 61 63 65 61 54 47 43 42 44 46 49 52 55 56 57 58 58 55 51 47 45 44 45 45 46 46 47 47 47 47 46 44 42 40 38 37 36 35 34
Wind_Direction
42 43 42 40 33 22 11 1 353 348 340 334 332 331 330 325 319 314 310 306 302 299 296 293 291 289 287 285 283 282 280 278 276 275 274 272 271 270 269 269 268 268 267 267
38 33 28 21 15 8 359 350 344 340 336 333 330 330 327 322 319 316 312 310 307 305 303 299 295 292 290 288 286 284 282 280 280 278 277 275 273 271 270 270 269 269 269 268
26 22 14 8 1 354 348 344 341 339 336 332 329 327 326 322 318 316 313 311 310 308 306 303 299 295 292 290 287 285 283 282 281 279 277 276 274 273 272 271 271 270 270 270
14 8 3 357 352 348 344 342 340 338 336 333 328 325 322 319 316 314 312 310 308 306 304 302 299 297 295 293 290 288 285 283 281 280 279 278 277 275 274 273 272 271 270 269
2 356 351 348 347 346 344 341 339 335 333 331 326 323 320 318 316 314 311 309 306 304 301 299 298 296 295 293 292 290 288 286 285 284 284 283 281 280 278 276 274 272 270 268
347 346 346 345 343 343 341 339 335 332 330 328 325 321 318 318 316 314 312 309 306 303 301 299 297 295 294 292 292 291 290 289 289 289 289 288 286 285 282 280 278 275 272 269
338 342 344 344 342 340 338 335 332 331 329 326 324 320 319 318 317 315 312 309 306 303 301 298 296 294 292 292 292 292 293 293 294 293 292 291 289 287 285 283 280 278 274 271
339 341 343 342 340 338 335 333 331 329 327 325 323 321 320 318 317 314 312 309 305 302 300 297 295 294 293 294 294 295 295 296 296 295 293 291 291 291 291 290 288 284 278 273
338 338 339 339 338 336 334 332 331 329 327 326 325 322 318 319 316 314 310 306 302 299 297 295 295 295 296 297 297 297 297 297 296 294 293 294 295 297 299 299 298 296 291 284
335 335 335 335 335 335 334 332 332 331 329 326 324 321 320 318 316 312 307 303 299 297 296 297 298 300 301 301 301 300 300 299 297 297 298 298 300 303 304 305 305 303 301 296
333 334 333 333 334 334 333 333 333 330 328 325 323 321 321 318 314 309 305 302 300 300 301 304 306 308 308 307 305 303 302 301 301 302 302 304 306 307 307 307 306 305 303 300
330 332 332 332 333 334 334 333 332 330 328 326 323 321 322 319 314 310 308 307 307 308 311 314 316 316 315 313 310 306 305 304 305 307 308 309 310 310 308 306 304 303 304 301
330 332 332 332 333 334 334 333 331 329 328 326 325 323 323 319 314 312 312 312 313 316 319 321 322 322 320 317 314 311 309 309 311 313 313 313 313 311 308 305 302 300 301 300
328 330 331 331 332 333 334 333 330 329 329 328 327 324 324 321 318 318 318 319 321 323 324 325 326 326 325 323 320 318 316 316 316 316 316 315 314 313 309 304 300 297 297 297
327 329 331 332 333 334 333 332 331 330 330 329 328 327 327 324 323 324 326 327 327 327 327 328 329 329 329 327 325 323 321 320 319 319 318 316 315 313 310 305 300 295 293 293
327 329 332 333 333 333 333 332 332 331 330 330 329 329 328 328 328 329 330 329 330 330 330 331 332 332 332 330 327 325 322 321 320 319 318 316 315 313 310 306 300 294 290 288
328 330 332 334 333 334 333 333 331 330 331 332 331 332 332 332 332 332 332 332 331 332 333 333 334 334 333 330 328 325 322 320 319 318 317 315 314 312 310 306 300 294 288 283
328 330 333 334 334 334 334 332 332 332 333 334 333 335 336 335 334 333 334 333 334 335 335 335 334 333 331 329 326 324 321 319 318 316 315 313 312 310 309 306 301 295 288 281
330 332 334 334 334 334 334 333 333 333 334 335 335 337 337 337 337 334 336 336 335 335 335 334 333 331 329 327 324 322 319 317 315 314 312 311 309 307 305 304 300 295 289 282
331 334 334 334 333 333 334 333 333 334 335 336 337 339 339 340 340 339 338 338 336 334 333 332 330 329 327 325 322 320 317 315 314 312 310 308 306 304 301 298 296 292 287 282
333 335 335 334 333 333 334 334 334 335 337 338 339 340 341 341 340 340 338 337 335 333 331 329 328 326 324 323 321 318 316 314 313 311 309 306 304 301 298 295 291 288 284 280
334 335 334 334 334 333 334 333 335 336 337 338 340 342 342 341 341 339 337 335 333 331 329 328 326 325 323 322 321 319 318 317 315 314 312 309 306 302 297 293 288 284 280 276
335 335 334 334 333 333 334 335 336 337 338 339 341 342 343 342 340 338 335 334 332 331 329 328 327 326 325 324 324 324 324 323 322 321 319 316 312 308 303 297 290 285 279 274
336 336 334 333 333 333 335 336 337 338 338 339 341 343 343 342 340 338 335 334 333 331 330 329 328 328 329 330 332 333 334 333 332 330 328 325 322 317 312 305 297 290 282 276
337 336 335 334 333 334 335 337 338 338 338 338 340 341 341 341 339 337 336 335 333 332 331 331 332 334 337 340 342 342 342 341 340 339 337 335 332 328 324 318 310 301 292 284
336 336 334 333 333 334 335 337 338 338 337 337 338 339 340 339 338 337 336 335 334 334 334 337 340 344 346 347 347 347 347 347 346 344 343 341 339 336 333 329 324 317 309 299
Height
5840 5839 5837 5836 5834 5832 5830 5827 5824 5822 5818 5814 5810 5807 5804 5800 5795 5790 5786 5781 5775 5770 5764 5758 5752 5747 5741 5736 5730 5725 5720 5715 5711 5707 5703 5699 5696 5694 5691 5689 5687 5685 5684 5684
5842 5839 5837 5835 5832 5830 5828 5825 5822 5819 5815 5811 5806 5803 5799 5794 5788 5783 5777 5772 5766 5760 5754 5748 5741 5734 5728 5722 5715 5709 5704 5698 5693 5689 5684 5680 5677 5674 5672 5671 5669 5667 5665 5665
5840 5839 5836 5834 5831 5828 5826 5823 5820 5817 5812 5807 5802 5798 5793 5787 5781 5775 5769 5762 5756 5749 5741 5734 5727 5719 5712 5705 5698 5691 5685 5679 5673 5668 5663 5659 5655 5652 5649 5648 5647 5646 5644 5644
5839 5837 5835 5833 5830 5827 5824 5820 5816 5812 5808 5802 5797 5792 5786 5779 5773 5766 5759 5751 5743 5734 5726 5717 5708 5699 5691 5683 5676 5669 5663 5656 5650 5644 5639 5634 5630 5627 5625 5624 5623 5622 5620 5619
5838 5836 5833 5831 5828 5825 5821 5817 5812 5807 5802 5796 5789 5783 5778 5770 5762 5754 5746 5737 5728 5719 5709 5698 5688 5679 5669 5660 5653 5646 5639 5632 5625 5619 5613 5608 5604 5601 5599 5597 5596 5596 5595 5593
5836 5834 5831 5828 5825 5821 5817 5813 5808 5802 5796 5790 5782 5774 5765 5757 5749 5739 5730 5720 5710 5699 5688 5678 5667 5657 5647 5638 5630 5623 5615 5608 5600 5594 5588 5583 5578 5575 5572 5570 5568 5567 5567 5566
5835 5832 5829 5825 5821 5817 5813 5809 5803 5796 5789 5781 5772 5762 5754 5743 5732 5722 5712 5701 5689 5677 5667 5656 5646 5636 5626 5617 5609 5601 5593 5586 5579 5572 5567 5562 5558 5554 5551 5548 5546 5543 5541 5540
5832 5829 5825 5821 5817 5813 5807 5802 5796 5789 5781 5774 5763 5751 5740 5728 5717 5705 5693 5681 5668 5657 5646 5636 5625 5615 5606 5597 5589 5582 5574 5567 5561 5555 5550 5546 5543 5539 5535 5530 5526 5522 5518 5516
5828 5825 5821 5817 5812 5807 5801 5794 5788 5780 5770 5761 5751 5739 5727 5714 5702 5690 5677 5663 5651 5640 5629 5618 5608 5597 5587 5579 5571 5564 5557 5551 5546 5541 5538 5534 5530 5525 5520 5515 5509 5503 5497 5493
5825 5822 5817 5812 5807 5801 5795 5787 5778 5768 5757 5748 5739 5726 5713 5699 5687 5675 5661 5649 5637 5625 5613 5602 5592 5581 5571 5562 5555 5548 5543 5538 5534 5531 5527 5523 5518 5514 5508 5502 5496 5489 5483 5478
5821 5818 5813 5807 5800 5795 5787 5779 5769 5758 5747 5735 5723 5714 5700 5686 5673 5659 5646 5633 5620 5609 5599 5589 5578 5567 5557 5549 5543 5538 5533 5529 5526 5521 5517 5513 5508 5503 5497 5491 5485 5479 5474 5468
5817 5813 5807 5801 5794 5787 5779 5770 5761 5751 5739 5725 5711 5701 5684 5671 5656 5642 5630 5618 5607 5596 5586 5576 5566 5557 5548 5541 5535 5530 5526 5522 5517 5513 5508 5504 5499 5493 5487 5482 5476 5471 5465 5460
5812 5807 5802 5795 5789 5780 5771 5762 5751 5740 5728 5715 5702 5690 5670 5657 5644 5631 5619 5608 5597 5587 5577 5567 5558 5549 5541 5534 5528 5523 5518 5514 5510 5505 5500 5495 5490 5484 5479 5473 5468 5462 5457 5452
5807 5802 5797 5789 5780 5772 5763 5753 5741 5730 5717 5704 5690 5676 5661 5647 5634 5623 5612 5600 5589 5578 5568 5559 5551 5542 5534 5527 5521 5516 5511 5507 5502 5497 5492 5486 5481 5475 5469 5464 5459 5454 5449 5445
5802 5796 5790 5781 5772 5764 5755 5744 5732 5719 5706 5692 5678 5662 5648 5633 5620 5609 5599 5589 5580 5571 5561 5553 5544 5536 5529 5522 5516 5510 5505 5500 5495 5489 5484 5478 5472 5466 5460 5454 5450 5445 5441 5437
5796 5790 5783 5775 5765 5756 5746 5734 5721 5709 5695 5681 5666 5653 5638 5624 5612 5602 5592 5582 5573 5563 5555 5546 5538 5530 5523 5516 5510 5505 5499 5493 5488 5482 5476 5469 5463 5457 5450 5445 5440 5436 5432 5428
5789 5783 5776 5768 5758 5748 5737 5726 5712 5699 5685 5670 5656 5643 5627 5615 5604 5595 5586 5576 5566 5558 5549 5541 5533 5525 5517 5511 5504 5498 5492 5486 5479 5473 5466 5460 5453 5447 5441 5435 5430 5426 5422 5419
5783 5776 5769 5760 5751 5739 5732 5717 5703 5688 5674 5659 5644 5631 5617 5606 5596 5587 5579 5570 5561 5552 5544 5535 5527 5520 5512 5505 5497 5490 5483 5476 5469 5462 5455 5449 5442 5436 5430 5424 5419 5415 5412 5409
5776 5769 5761 5751 5741 5731 5720 5707 5692 5678 5666 5650 5636 5624 5613 5603 5593 5583 5574 5564 5555 5547 5538 5530 5522 5514 5505 5497 5489 5482 5474 5466 5458 5451 5444 5437 5430 5424 5419 5413 5408 5404 5400 5398
5769 5762 5753 5742 5731 5721 5712 5697 5682 5669 5657 5641 5627 5615 5605 5596 5588 5580 5569 5559 5550 5542 5533 5524 5516 5507 5498 5489 5480 5471 5463 5454 5446 5438 5430 5423 5417 5411 5406 5401 5396 5392 5389 5386
5762 5754 5745 5734 5723 5713 5702 5688 5674 5662 5651 5634 5620 5609 5598 5589 5581 5572 5563 5554 5545 5536 5527 5518 5508 5498 5489 5479 5470 5460 5451 5441 5432 5424 5416 5408 5402 5396 5391 5386 5382 5378 5375 5373
5754 5745 5736 5725 5714 5706 5691 5679 5666 5653 5637 5624 5613 5602 5593 5584 5575 5566 5557 5548 5539 5530 5520 5510 5499 5489 5478 5468 5458 5448 5438 5428 5418 5409 5401 5393 5385 5379 5374 5370 5366 5363 5360 5358
5747 5738 5727 5717 5708 5695 5682 5670 5656 5642 5630 5617 5607 5597 5588 5579 5571 5562 5552 5543 5532 5522 5511 5501 5490 5478 5467 5456 5446 5436 5425 5415 5406 5396 5387 5379 5371 5363 5357 5353 5348 5345 5342 5341
5739 5730 5719 5708 5697 5685 5673 5660 5647 5633 5622 5611 5601 5593 5584 5575 5566 5556 5546 5536 5525 5514 5503 5492 5480 5469 5457 5446 5435 5425 5415 5405 5395 5385 5376 5367 5358 5350 5343 5336 5332 5328 5324 5322
5732 5722 5712 5701 5689 5677 5665 5653 5640 5627 5616 5606 5597 5588 5580 5570 5561 5551 5540 5529 5518 5506 5494 5483 5471 5460 5449 5439 5429 5419 5408 5398 5388 5377 5367 5358 5348 5339 5331 5323 5317 5312 5308 5305
5724 5715 5704 5694 5683 5671 5660 5647 5634 5622 5612 5602 5593 5585 5575 5566 5556 5545 5534 5522 5510 5498 5486 5475 5464 5454 5444 5434 5424 5414 5404 5393 5383 5372 5362 5352 5342 5332 5323 5315 5307 5299 5295 5290